Location: AstroGeek's Observatory
(41.9520°N, 70.9880°W)
Time: 12:25:31
(UTC-04:00)

ISS - All Passes

Search period start: 20 September 2017 00:00
Search period end: 30 September 2017 00:00
Orbit: 402 x 407 km, 51.6° (Epoch: 21 September)

Date Brightness Start Highest point End Pass type
(mag) Time Alt. Az. Time Alt. Az. Time Alt. Az.
20 Sep - 01:09:37 10° NW 01:11:46 16° N 01:13:55 10° NE night (unlit)
20 Sep - 02:46:44 10° NW 02:49:11 19° NNE 02:51:36 10° ENE night (unlit)
20 Sep - 04:22:51 10° NW 04:26:07 66° NNE 04:29:24 10° ESE visible
20 Sep - 06:00:17 10° W 06:02:15 15° SW 06:04:13 10° SSW visible
20 Sep - 21:04:01 10° S 21:06:04 16° SE 21:08:08 10° E night (unlit)
20 Sep - 22:38:58 10° WSW 22:42:13 62° NNW 22:45:29 10° NE night (unlit)
21 Sep - 00:16:47 10° WNW 00:19:12 18° NNW 00:21:35 10° NE night (unlit)
21 Sep - 01:54:26 10° NNW 01:56:36 16° N 01:58:46 10° NE night (unlit)
21 Sep - 03:30:37 10° NW 03:33:45 39° NNE 03:36:52 10° E visible
21 Sep - 05:07:16 10° WNW 05:10:08 27° SW 05:12:59 10° SSE visible
21 Sep - 21:46:39 10° SW 21:49:54 71° SE 21:53:11 10° ENE night (unlit)
21 Sep - 23:23:56 10° WNW 23:26:38 23° NNW 23:29:22 10° NE night (unlit)
22 Sep - 01:01:58 10° NW 01:03:59 15° N 01:06:01 10° NE night (unlit)
22 Sep - 02:38:25 10° NW 02:41:17 26° NNE 02:44:08 10° E night (unlit)
22 Sep - 04:14:42 10° WNW 04:17:55 53° SW 04:21:08 10° SE visible
22 Sep - 20:54:36 10° SSW 20:57:39 36° SE 21:00:42 10° ENE visible
22 Sep - 22:31:08 10° W 22:34:09 32° NNW 22:37:09 10° NE night (unlit)
23 Sep - 00:09:17 10° NW 00:11:22 15° N 00:13:27 10° NE night (unlit)
23 Sep - 01:46:12 10° NW 01:48:44 20° NNE 01:51:17 10° ENE night (unlit)
23 Sep - 03:22:19 10° NW 03:25:37 81° NE 03:28:54 10° ESE night (unlit)
23 Sep - 05:00:19 10° WSW 05:01:39 12° SW 05:02:59 10° SSW visible
23 Sep - 20:03:02 10° S 20:05:27 19° SE 20:07:54 10° E visible
23 Sep - 21:38:29 10° WSW 21:41:41 51° NNW 21:44:55 10° NE night (unlit)
23 Sep - 23:16:26 10° NW 23:18:44 17° N 23:21:02 10° NNE night (unlit)
24 Sep - 00:53:54 10° NNW 00:56:09 17° N 00:58:24 10° NE night (unlit)
24 Sep - 02:30:03 10° NW 02:33:14 46° NNE 02:36:25 10° ESE night (unlit)
24 Sep - 04:06:53 10° W 04:09:31 22° SW 04:12:09 10° S night (unlit)
24 Sep - 19:12:55 10° SE 19:13:20 10° SE 19:13:46 10° ESE visible
24 Sep - 20:46:02 10° SW 20:49:19 88° SE 20:52:36 10° NE visible
24 Sep - 22:23:33 10° WNW 22:26:09 21° NNW 22:28:44 10° NE night (unlit)
25 Sep - 00:01:27 10° NW 00:03:30 15° N 00:05:33 10° NE night (unlit)
25 Sep - 01:37:47 10° NW 01:40:45 30° NNE 01:43:42 10° E night (unlit)
25 Sep - 03:14:10 10° WNW 03:17:18 42° SW 03:20:26 10° SSE night (unlit)
25 Sep - 19:53:51 10° SSW 19:57:00 45° SE 20:00:09 10° ENE visible
25 Sep - 21:30:41 10° W 21:33:34 28° NNW 21:36:29 10° NE visible
25 Sep - 23:08:49 10° NW 23:10:50 15° N 23:12:52 10° NE night (unlit)
26 Sep - 00:45:33 10° NW 00:48:12 22° NNE 00:50:50 10° ENE night (unlit)
26 Sep - 02:21:42 10° WNW 02:25:00 82° SW 02:28:17 10° SE night (unlit)
26 Sep - 19:02:03 10° S 19:04:45 24° SE 19:07:27 10° E visible
26 Sep - 20:37:55 10° WSW 20:41:04 43° NNW 20:44:14 10° NE visible
26 Sep - 22:15:58 10° NW 22:18:10 16° N 22:20:23 10° NNE night (unlit)
26 Sep - 23:53:15 10° NNW 23:55:35 18° NNE 23:57:55 10° ENE night (unlit)
27 Sep - 01:29:21 10° NW 01:32:36 55° NNE 01:35:50 10° ESE night (unlit)
27 Sep - 03:06:27 10° W 03:08:47 18° SW 03:11:07 10° S night (unlit)
27 Sep - 18:11:00 10° SSE 18:12:34 13° SE 18:14:07 10° ESE daylight
27 Sep - 19:45:21 10° WSW 19:48:37 75° NNW 19:51:54 10° NE visible
27 Sep - 21:23:02 10° WNW 21:25:31 20° NNW 21:28:01 10° NE visible
27 Sep - 23:00:49 10° NW 23:02:54 16° N 23:05:00 10° NE night (unlit)
28 Sep - 00:37:03 10° NW 00:40:06 34° NNE 00:43:08 10° E night (unlit)
28 Sep - 02:13:33 10° WNW 02:16:34 33° SW 02:19:34 10° SSE night (unlit)
28 Sep - 18:53:01 10° SW 18:56:14 57° SE 18:59:28 10° ENE visible
28 Sep - 20:30:06 10° W 20:32:54 25° NNW 20:35:43 10° NE visible
28 Sep - 22:08:12 10° NW 22:10:12 15° N 22:12:13 10° NE visible
28 Sep - 23:44:46 10° NW 23:47:32 24° NNE 23:50:17 10° ENE night (unlit)
29 Sep - 01:20:58 10° WNW 01:24:15 66° SW 01:27:29 10° SE night (unlit)
29 Sep - 18:01:02 10° SSW 18:03:55 29° SE 18:06:50 10° ENE daylight
29 Sep - 19:37:15 10° W 19:40:20 36° NNW 19:43:25 10° NE visible
29 Sep - 21:15:22 10° NW 21:17:29 16° N 21:19:37 10° NNE visible
29 Sep - 22:52:27 10° NW 22:54:53 19° NNE 22:57:19 10° ENE night (unlit)
